Location: Caltech
(34.1382°N, 118.1253°W)
Time: 01:35:22
(UTC-07:00)

Courier 1B - Visible Passes

Search period start: 02 August 2014 00:00
Search period end: 12 August 2014 00:00
Orbit: 963 x 1209 km, 28.3° (Epoch: 01 August)

Date Brightness Start Highest point End Pass type
(mag) Time Alt. Az. Time Alt. Az. Time Alt. Az.
02 Aug 10.0 00:16:48 10° W 00:17:23 12° W 00:17:23 12° W visible
02 Aug 8.0 21:28:53 10° WSW 21:36:10 56° S 21:39:56 30° ESE visible
02 Aug 9.0 23:22:54 10° W 23:26:48 31° WSW 23:26:48 31° WSW visible
03 Aug 8.1 20:35:16 10° WSW 20:42:20 53° S 20:49:19 12° E visible
03 Aug 8.0 22:29:05 10° W 22:36:11 53° SSW 22:36:11 53° SSW visible
04 Aug 8.0 21:35:20 10° W 21:42:32 55° S 21:45:33 36° SE visible
04 Aug 9.4 23:29:33 10° W 23:32:25 23° WSW 23:32:25 23° WSW visible
05 Aug 8.0 20:41:40 10° WSW 20:48:43 56° S 20:54:53 16° ESE visible
05 Aug 8.4 22:35:40 10° W 22:41:46 42° SSW 22:41:46 42° SSW visible
06 Aug 8.2 21:41:53 10° W 21:48:54 49° S 21:51:06 39° SSE visible
06 Aug 9.8 23:36:31 10° WSW 23:37:58 15° WSW 23:37:58 15° WSW visible
07 Aug 8.1 20:48:11 10° W 20:55:06 52° S 21:00:26 19° ESE visible
07 Aug 8.9 22:42:28 10° W 22:47:18 30° SW 22:47:18 30° SW visible
08 Aug 8.4 21:48:34 10° W 21:55:12 38° SSW 21:56:40 35° S visible
09 Aug 8.3 20:54:48 10° W 21:01:28 43° SSW 21:06:02 21° SE visible
09 Aug 9.4 22:49:42 10° WSW 22:52:54 19° SW 22:52:54 19° SW visible
10 Aug 8.3 20:01:06 10° W 20:07:44 48° S 20:14:47 10° ESE visible
10 Aug 8.9 21:55:33 10° WSW 22:01:27 27° SSW 22:02:18 27° SSW visible
11 Aug 8.7 21:01:37 10° W 21:07:46 33° SSW 21:11:44 20° SSE visible
11 Aug 9.9 22:58:10 10° SW 22:58:37 11° SW 22:58:37 11° SW visible
